This is the latest recevied weather packets stored in our database for station/object K6CED. If no packets are shown the sender has not sent any weather packets the latest 10 day(s).
| Time | Temp. | Humidity | Pressure | Rain* | Wind** | Luminosity | Snow |
|---|---|---|---|---|---|---|---|
| 1787513196 | 37.78° C | 28% | 1015.5 hPa | 0 mm | - | 850 W/m² | - |
| 1787512892 | 38.33° C | 27% | 1015.4 hPa | 0 mm | - | 851 W/m² | - |
| 1787512587 | 38.33° C | 27% | 1015.7 hPa | 0 mm | - | 853 W/m² | - |
| 1787512284 | 38.33° C | 27% | 1015.6 hPa | 0 mm | - | 856 W/m² | - |
| 1787511979 | 37.78° C | 27% | 1015.5 hPa | 0 mm | - | 764 W/m² | - |
| 1787511674 | 37.78° C | 28% | 1015.6 hPa | 0 mm | - | 862 W/m² | - |
| 1787511373 | 37.78° C | 27% | 1015.5 hPa | 0 mm | - | 857 W/m² | - |
| 1787511073 | 37.78° C | 27% | 1015.7 hPa | 0 mm | - | 849 W/m² | - |
| 1787510767 | 37.78° C | 27% | 1015.8 hPa | 0 mm | - | 839 W/m² | - |
| 1787510463 | 37.78° C | 26% | 1015.6 hPa | 0 mm | - | 836 W/m² | - |
| 1787510158 | 37.78° C | 26% | 1015.9 hPa | 0 mm | - | 840 W/m² | - |
| 1787509855 | 37.22° C | 27% | 1015.9 hPa | 0 mm | - | 827 W/m² | - |
| 1787509550 | 36.67° C | 27% | 1015.8 hPa | 0 mm | - | 816 W/m² | - |
| 1787509247 | 37.78° C | 26% | 1015.9 hPa | 0 mm | - | 809 W/m² | - |
| 1787508946 | 37.22° C | 28% | 1015.9 hPa | 0 mm | - | 801 W/m² | - |
| 1787508643 | 36.11° C | 28% | 1015.8 hPa | 0 mm | - | 794 W/m² | - |
| 1787508342 | 36.11° C | 29% | 1016.1 hPa | 0 mm | - | 786 W/m² | - |
| 1787508039 | 35.56° C | 29% | 1016.2 hPa | 0 mm | - | 777 W/m² | - |
| 1787507735 | 35.56° C | 30% | 1016.3 hPa | 0 mm | - | 769 W/m² | - |
| 1787507431 | 35° C | 30% | 1016.2 hPa | 0 mm | - | 762 W/m² | - |
| 1787507126 | 35.56° C | 30% | 1016.2 hPa | 0 mm | - | 751 W/m² | - |
| 1787506822 | 35.56° C | 31% | 1016.3 hPa | 0 mm | - | 741 W/m² | - |
| 1787506518 | 34.44° C | 32% | 1016.2 hPa | 0 mm | - | 730 W/m² | - |
| 1787506213 | 35° C | 32% | 1016.2 hPa | 0 mm | - | 718 W/m² | - |
| 1787505908 | 34.44° C | 34% | 1016 hPa | 0 mm | - | 707 W/m² | - |
* Rain latest hour (hover to see other rain measurements)
** Current wind speed in m/s (hover to see current wind gust speed)